Tracking 31011 objects as of 13-Jul-2025
HD Live streaming from Space Station
objects crossing your sky now

STARLINK-5827

Track STARLINK-5827 now!
10-day predictions
STARLINK-5827 is classified as:


NORAD ID: 57066
Int'l Code: 2023-088U
Perigee: 565.3 km
Apogee: 567.2 km
Inclination: 43.0 °
Period: 95.8 minutes
Semi major axis: 6937 km
RCS: Unknown
Launch date: June 22, 2023
Source: United States (US)
Launch site: AIR FORCE WESTERN TEST RANGE (AFWTR)
Your satellite tracking list
Your tracking list is empty




NASA's NSSDC Master Catalog

Two Line Element Set (TLE):
1 57066U 23088U   25194.10726271 -.00001588  00000-0 -10252-3 0  9999
2 57066  43.0027 329.0147 0001329 263.5202  96.5489 15.02520058113434
Source of the keplerian elements: AFSPC